www.pogodaiklimat.ru

ПОГОДА в Мидлсборо, KY

  • Прогноз погоды в Мидлсборо
  • Монитор погоды в Мидлсборо
  • Климат в Мидлсборо

АРХИВ ПОГОДЫ в Мидлсборо

Время (UTC), дата Ветер
(напр.,м/с)
 
Видим.   Явления Облачность Т
(С)
Тd
(С)
f
(%)
Тe
(С)
Тes
(С)
Комфортность

P
(гПа)

Po
(гПа)
Тmin
(С)
Tmax
(С)
R
(мм)
SD
(см)
08:15 21.03   16 км    10/0 2700 м
[средняя] 
+5.6  +1.9  77  +5  +5      972.5         
08:35 21.03   16 км    10/0 2250 м
[средняя] 
+5.9  +0.9  70  +5  +5      972.8         
08:55 21.03   16 км    10/5 1950 м
[средняя] 
+6.1  +1.0  70  +5  +5      972.8         
09:15 21.03 СЗ  16 км    10/5 1950 м
[средняя] 
+7.4  +1.2  65  +4  +4      972.8         
09:35 21.03 СЗ  16 км    10/0 2550 м
[средняя] 
+9.1  +1.1  57  +7  +7      972.8         
09:55 21.03 СЗ  16 км    10/0 2550 м
[средняя] 
+9.1  +1.0  57  +7  +7      972.8         
10:15 21.03   16 км    10/0 2850 м
[средняя] 
+9.0  +0.7  56  +9  +9      972.5         
10:35 21.03   16 км    10/0 3300 м
[средняя] 
+7.9  +1.4  63  +7  +7      972.5         
10:55 21.03   16 км    8/0 3600 м
[средняя] 
+7.2  +1.5  67  +7  +7      972.5  +5.3  +9.5     
11:15 21.03   16 км    8/0 2700 м
[средняя] 
+6.8  +2.0  71  +6  +6      972.5         
11:35 21.03   16 км    10/5 1800 м
[средняя] 
+7.4  +2.1  69  +7  +7      972.1         
11:55 21.03   16 км    10/8 1950 м
[средняя] 
+8.0  +2.1  66  +7  +7      972.1         
12:15 21.03   16 км    10/0 2250 м
[средняя] 
+8.3  +2.8  68  +8  +9      972.1         
12:35 21.03   16 км    10/8 1350 м
[средняя] 
+8.5  +2.5  66  +8  +8      972.1         
12:55 21.03   16 км    10/8 1410 м
[средняя] 
+8.7  +2.2  64  +8  +8      972.1         
13:15 21.03   16 км    10/5 1350 м
[средняя] 
+9.2  +1.3  58  +9  +10      971.8         
13:35 21.03   16 км    10/8 1110 м
[средняя] 
+9.5  +1.3  57  +9  +10      971.8         
13:55 21.03   16 км    10/10 1050 м  +9.5  +1.6  58  +9  +9      971.8         
14:15 21.03 СЗ  16 км    10/10 990 м  +9.5  +3.1  64  +7  +7      971.8         
14:35 21.03 З  16 км    10/10 930 м  +9.3  +3.2  66  +7  +7      971.8         
14:55 21.03 СЗ  11 км  слабый дождь  10/10 870 м  +8.5  +5.4  81  +5  +5      971.8         
15:15 21.03 СЗ  16 км  слабый дождь  10/10 780 м  +8.2  +5.3  82  +7  +7      971.8         
15:35 21.03 СЗ  11 км  слабый дождь  10/10 600 м  +7.8  +5.5  85  +5  +5      971.8         
15:55 21.03 СЗ  11 км  морось  10/10 600 м  +7.7  +5.7  87  +5  +5      971.8         
16:15 21.03 З  16 км  слабый дождь  10/10 720 м  +7.3  +5.5  88  +6  +6      971.8         
16:35 21.03   16 км    10/8 690 м
[средняя] 
+7.6  +5.1  84  +7  +8      971.5         
16:55 21.03 ЮЗ  16 км    10/5 780 м
[средняя] 
+8.6  +5.2  79  +7  +10      971.2  +6.7  +9.6  0.3   
17:15 21.03 З  16 км    10/5 840 м
[средняя] 
+9.8  +4.9  72  +9  +11      970.8         
17:35 21.03 СЗ  16 км    10/8 900 м
[средняя] 
+9.6  +4.1  69  +9  +10      970.2         
17:55 21.03 З  16 км    10/10 1020 м  +10.4  +4.4  66  +8  +8      969.9         
18:15 21.03 З  1
{6} 
6 км  слабый дождь  10/10 360 м  +6.3  +4.2  86  +4  +4      970.8         
18:35 21.03   16 км    10/8 360 м
[средняя] 
+7.1  +3.8  80  +6  +7      970.2         
18:55 21.03 ЮВ  16 км    10/5 1050 м
[средняя] 
+8.0  +4.9  81  +7  +9      969.9         
19:15 21.03 В  16 км    10/10 990 м  +8.3  +4.7  78  +6  +6      969.9         
19:35 21.03   8 км  слабый дождь  8/8 510 м  +8.3  +5.8  84  +7  +10      969.9         
19:55 21.03   11 км  слабый дождь  8/8 510 м  +8.3  +5.2  81  +8  +10      969.5      1.0   
20:15 21.03   16 км    5/5 1800 м
[средняя] 
+10.5  +5.7  72  +10  +14      969.5         
20:35 21.03 СВ  16 км    8/8 1170 м  +10.7  +4.7  66  +9  +10      969.5         
20:55 21.03 З  8 км    10/10 630 м  +8.6  +4.1  73  +6  +6      970.2         
21:15 21.03 СЗ  9
{11} 
16 км  гроза с дождем  10/10 1080 м  +8.8  +4.0  72  +4  +4      970.8         
21:35 21.03 СЗ  5
{10} 
11 км  слабый дождь  10/10 330 м  +7.0  +4.0  81  +3  +3      971.2         
21:55 21.03 С  16 км    10/10 720 м  +7.0  +3.6  79  +3  +3      971.5         
22:15 21.03 С  16 км    10/10 660 м  +6.5  +3.4  81  +3  +3      971.8         
22:35 21.03 СЗ  16 км  слабый дождь  10/10 660 м  +6.2  +3.3  82  +2  +2      972.1         
22:55 21.03 СЗ  16 км  слабый дождь  10/10 720 м  +6.0  +2.6  79  +2  +2      972.5  +6.0  +10.9  2.0   
23:15 21.03 СЗ  4
{10} 
16 км    10/10 780 м  +5.8  +2.0  77  +2  +2      972.8         
23:35 21.03 С  5
{8} 
16 км    10/10 930 м  +5.7  +0.9  71  +1  +1      973.1         
23:55 21.03 С  16 км    10/10 930 м  +5.5  +0.6  71  +1  +1      973.4         

 

Местоположение метеостанции Middlesboro-Bell County Airport: широта 36.6106 долгота -83.7372 высота над уровнем моря 352 м.

В архиве по умолчанию представлена погода в Мидлсборо за последние 1-2 суток. Обновление информации о фактической погоде в базе происходит ежечасно! Архивные данные за месяц целиком и за предыдущие месяцы Вы можете получить, выбрав интересующий диапазон дат из раскрывающегося списка и нажав кнопку "Ввод!".

Внимание! Архив погоды МЕТАР в базе сайта хранится не более 60 дней. Нет смысла пытаться выбрать более раннюю дату.

Внимание! Время в таблицах - всемирное. Для получения местного времени необходимо прибавить поправку, которая в Мидлсборо равна -5 ч.

Ветер - указаны скорость ветра в м/с и направление, откуда дует ветер: С - северный, СВ - северо-восточный, В - восточный, ЮВ - юго-восточный, Ю - южный, ЮЗ - юго-западный, З - западный, СЗ - северо-западный.
Видимость - горизонтальная дальность видимости в метрах или километрах. При видимости от 1 до 10 км при отсутствии осадков обычно наблюдается дымка, при ухудшении видимости до 1 км и менее - туман. В сухую погоду видимость может ухудшаться дымом, пылью или мглою.
Атмосферные явления - указаны явления, наблюдавшиеся в указанный момент времени.
Облачность - указаны через наклонную черту верхняя и нижняя облачность в баллах и высота нижней границы облаков в метрах. Внимание: облачность, как и прочие метеорологические величины в США измеряются автоматическими метеостанциями. Указанные значения в баллах носят условный характер и показывают процент времени, в течение которого, в среднем, лазерный луч высотомера отражался от облаков обратно.
T - Температура воздуха - температура, измеренная на высоте 2 м над землей.
Td - Температура точки росы - температура, при понижении до которой содержащийся в воздухе водяной пар достигнет насыщения.
f - Относительная влажность воздуха - влажноcть воздуха, измеренная на высоте 2 м над землей.
Te - Эффективная температура - температура, которую ощущает одетый по сезону человек в тени. Характеристика душности погоды. При расчете учитывается влияние влажности воздуха и скорости ветра на теплоощущения человека.
Tes - Эффективная температура на солнце - температура, которую ощущает человек, с поправкой на солнечный нагрев. Характеристика знойности погоды. Зависит от высоты солнца над горизонтом, облачности и скорости ветра. Ночью, в пасмурную погоду, а также при ветре 12 м/с и более поправка равна нулю.
P - Атмосферное давление - приведенное к уровню моря атмосферное давление.
Po - Атмосферное давление - измеренное на уровне метеостанции атмосферное давление.
Tmin - Минимальная температура - минимум температуры воздуха на высоте 2 м над землей.
Tmax - Максимальная температура - максимум температуры воздуха на высоте 2 м над землей.
R - Количество осадков - Количество выпавших осадков за 3 или 6 часов, мм.
SD - Снежный покров - Высота снежного покрова, см.